User: anonymous   Login
Location: Unspecified
(0.0000°N, 0.0000°E)
Time: 07:59:17
(UTC+00:00)
Language:

Snapshot - Orbit

View from above orbital plane
View from above orbital plane
View from above satellite
View from above satellite

Ground track
Ground track

The orbit data is extracted from the following two-line orbital elements,

1 01314U 65027A   16183.17748266  .00000007  00000-0 -13314-5 0  9994
2 01314  90.3089 274.9681 0031736  57.2328   0.5251 12.91746451161746
Epoch (UTC): 01 July 2016 04:15:34
Eccentricity: 0.0031736
inclination: 90.3089°
perigee height: 1270 km
apogee height: 1319 km
right ascension of ascending node: 274.9681°
argument of perigee: 57.2328°
revolutions per day: 12.91746451
mean anomaly at epoch: 0.5251°
orbit number at epoch: 16174

The dashed part of the orbit path shows where the satellite is in the earth's shadow,  

DLR